Погода в Харькове

Погода в Харькове : погода сейчас, прогноз погоды и архив. Всё, что Вы хотите узнать о погоде в Харькове!

Хотите узнать прогноз погоды в Харькове? Тогда Вам сюда: Погода в Харькове

Поиск расширенной информации на нашем сайте:

Другие новости

Новости СМИ2

Главная страница сайта

Новости сайта

02.10.2013

Напоминаем, что на нашем новом сайте вы можете получить высокодетализированные прогнозы погоды по пунктам России, СНГ и мира (включающие важные для авиации метеовеличины, такие как направление и скорость ветра, видимость, явления погоды, количество и форма облачности, нижняя и верхняя граница облачности), а также ознакомиться с разнообразными материалами по авиационной метеорологии и подборкой полезных ссылок на эту тему.

Сайт Метеоцентр.Азия посвящён разработке технологий оптимизации авиаметеорологического обслуживания, включая проектирование и перспективное создание нескольких автоматизированных авиаметеорологических систем:
- система выпуска высокодетальных прогностических карт явлений погоды для нижнего воздушного пространства по России и ближнему зарубежью;
- система верификации прогнозов TAF (выпускаемых синоптиками официальных АМСГ РФ и ближнего зарубежья) и AUTOTAF (выпускаемых сайтом Метеоцентр.Азия) - выявление ошибок, онлайн-сопоставление с фактической погодой METAR, автоматическое внесение коррективов в прогнозы при резком отклонении фактической погоды от прогноза, подсчёт оправдываемости прогнозов по элементам и в целом;
- система обработки, анализа и отображения авиаметеорологической информации для применения провайдерами метеорологической информации.

Рекомендуем: Безопасность vip персон

Погода в Харькове - сегодня

Время (UTC), дата Ветер
(°,м/с) 
Видим.   Явления Облачность Т
(°С)
Тd
(°С)
f(%) Тe
(°С)
Pmin
(гПа)
dP
(гПа)
Po
(мм)
O2
(г/м3)
Тmin Tmax R s Состояние
почвы
15 21.01.17 270 (З) 4000 м  слаб. переохл. дождь (гололёд){ливн. осадки, снег}  10/8 210 м средняя 
[Frnb|As op]
-1 -2 93 -4  1017.4  -0.1  748  303           
18 21.01.17 290 (З) 10 км  {ливн. осадки, снег}  10/10 300 м 
[Sc]
+0.4 -1 90 -2  1018.5  1.2  749  302    +0.4  0.7     
21 21.01.17 330 (СЗ) 10 км    9/6 600 м средняя 
[Sc|Ac trans]
+0.4 -3.6 74 -3  1021.2  2.6  751  303           
00 22.01.17 340 (С) 10 км  в посл. час снег  3/3 1000 м 
[Sc]
-2.4 -8 65 -6  1024.9  3.4  754  307      0.0     
03 22.01.17 310 (СЗ) 10 км    ясно 
-5.6 -9 77 -9  1028  2.8  756  312           
06 22.01.17 280 (З) 10 км    ясно 
-8.9 -10.4 89 -11  1030.2  1.9  757  316  -8.9    0.0  30  равномерный
мокрый или
старый снег
100% 
09 22.01.17 270 (З) 10 км    ясно 
-5 -8.7 75 -7  1030.8  0.9  758  312           
12 22.01.17 270 (З) 10 км    ясно 
-2.6 -6.7 73 -6  1029.4  -1.2  757  309           
15 22.01.17 290 (З) 10 км    8/8 450 м 
[Sc]
-3.2 -6.3 79 -7  1028.5  -0.9  756  309           
18 22.01.17 270 (З) 10 км    8/8 300 м 
[Sc]
-3.8 -5.3 89 -8  1028.1  -0.4  756  310    -2.3       
21 22.01.17 270 (З) 10 км    4/4 600 м 
[Sc]
-2 -4.1 85 -5  1026.9  -1.1  755  307           
00 23.01.17 270 (З) 10 км    4/4 300 м 
[St]
-3.6 -5.7 85 -8  1026.4  -0.6  755  309           
03 23.01.17 270 (З) 10 км    10/10 240 м 
[Sc]
-3.9 -5.4 89 -8  1026.1  -0.3  755  309           
06 23.01.17 270 (З) 10 км    10/10 150 м 
[St]
-4.4 -5.3 93 -8  1026.4  0.3  755  310  -4.4      29  равномерный
сухой снег
100% 
09 23.01.17 260 (З) 10 км    8/8 180 м 
[St]
-3.6 -5.1 89 -7  1026.2  -0.2  755  309           
12 23.01.17 250 (З) 10 км    3/0 верхняя 
[Ci fib]
+0.4 -4.7 69 -3  1024.9  -1  754  304           
15 23.01.17 240 (ЮЗ) 10 км    4/0 верхняя 
[Ci fib]
-1.4 -5.1 76 -5  1024.8  -0.2  754  306           
18 23.01.17 250 (З) 10 км    ясно 
-3.1 -5.8 82 -7  1024  -0.9  753  308    +1       
21 23.01.17 240 (ЮЗ) 10 км    ясно 
-4.8 -6.8 86 -9  1023.6  -0.5  753  309           
00 24.01.17 230 (ЮЗ) 10 км    ясно 
-5 -6.3 91 -9  1022.1  -1.5  752  309           
03 24.01.17 240 (ЮЗ) 10 км    8/8 180 м 
[St]
-5 -6 93 -9  1020.1  -2  750  309           
06 24.01.17 240 (ЮЗ) 10 км    10/10 270 м 
[St]
-5.8 -6.9 92 -10  1019.7  -0.4  750  309  -5.8      29  равномерный
сухой снег
100% 
09 24.01.17 240 (ЮЗ) 10 км    10/10 240 м 
[St]
-4.7 -6.3 89 -10  1018.7  -0.9  749  308           
12 24.01.17 260 (З) 10 км    10/10 180 м 
[St]
-3.8 -5.3 89 -8  1017  -1.6  748  306           
15 24.01.17 250 (З) 4400 м  слаб. переохл. морось (гололёд){снег}  10/10 180 м 
[St]
-4.2 -5.1 93 -6  1016.5  -0.5  748  307           
Время (UTC), дата Ветер
(°,м/с) 
Видим.   Явления Облачность Т
(°С)
Тd
(°С)
f(%) Тe
(°С)
Pmin
(гПа)
dP
(гПа)
Po
(мм)
O2
(г/м3)
Тmin Tmax R s Состояние
почвы

Для получения пояснительной информации подведите курсор к названию столбца.

ПОГОДА в Харькове - архив

Всё, что Вы хотите узнать о погоде в Харькове - удобно и подробно!

Выберите нужную дату (начиная с 1 января 2015* года) и нажмите кнопку "Найти".
Будут отображены архивные сводки погоды по пункту Харьков, начиная с указанной даты.


Отображать данные в формате CSV (для использования в таблицах Excel)


Внимание! Наш архив погоды предназначен исключительно для личного некоммерческого использования в познавательных целях. Если Вам необходимы официальные справки о состоянии погоды (для производственных, юридических, коммерческих и т.п. целей), обращайтесь в органы Росгидромета.

*Примечание: данная дата относится к архиву по метеостанциям СССР (Россия, СНГ, Балтия).
Архив по метеостанциям Зарубежной Европы и Азии (кроме Китая) хранится 10 дней, по другим регионам земного шара (Китай, Африка, Америка, Австралия, Океания) - 1 день.

Харьков - район местоположения метеостанции


Название, широта, долгота, высота метеостанции:
Харьков 49.1°ш. 36.1°д. 155 м над ур. моря [Украина]

Дополнительная информация

В oтличие oт бoльшинства пoгoдных сайтoв мы публикуем пoдрoбную метеoинфoрмацию в детальнoм прoфессиoнальнoм фoрмате.

Характеристики температуры и влажнoсти вoздуха измеряются на высoте 2 м в тени вдали oт зданий и деревьев.
Скoрoсть ветра измеряется на высoте 10 м (на урoвне рoста челoвека скoрoсть ветра ниже в 1.5-2 раза). Если метеoстанция нахoдится в гoрoде или в лесу, тo скoрoсть ветра занижена на 2-4 м/с пo сравнению с oткрытым местoм. Скoрoсть ветра над акватoриями крупных рек и oзёр, а также на вершинах хoлмoв на 2-5 м/с выше, чем в oбычных услoвиях.
Атмoсфернoе давление в разных тoчках местнoсти мoжет значительнo oтличаться oт давления на метеoстанции, в зависимoсти oт услoвий рельефа (при пoдъёме на 10 м давление пoнижается примернo на 1 мм рт.ст.).